When you browse on this site, cookies collect data to enhance your experience and personalize the content and advertising you see.
Visit our Privacy Policy to learn more. By continuing to use the site, you agree to this use of cookies and data.
  • In Switzerland
  • List of Countries
  • For 7 days
  • Water Temperature
  • Satellite Maps
  • Weather Map
  • Weather Widgets
  • user-avatar
    Login

    Hourly Weather Siempang

    Today, 11 December, Tuesday

    Time Temperature Precipitation Wind Pressure Humidity
    00:00 +25°C° 0 mm 0 mps 753 mmHg 77%
    01:00 +24°C° 0 mm 0 mps 753 mmHg 80%
    02:00 +24°C° 0 mm 0 mps 753 mmHg 82%
    03:00 +25°C° 0 mm 1 mps 753 mmHg 84%
    04:00 +25°C° 0 mm 1 mps 752 mmHg 85%
    05:00 +25°C° 0 mm 1 mps 753 mmHg 84%
    06:00 +25°C° 0 mm 1 mps 753 mmHg 83%
    07:00 +25°C° 0 mm 1 mps 753 mmHg 83%
    08:00 +28°C° 0 mm 1 mps 753 mmHg 72%
    09:00 +31°C° 0 mm 1 mps 753 mmHg 61%
    10:00 +34°C° 0 mm 2 mps 753 mmHg 50%
    11:00 +36°C° 0 mm 2 mps 753 mmHg 47%
    12:00 +37°C° 0 mm 2 mps 752 mmHg 44%
    13:00 +38°C° 0 mm 2 mps 752 mmHg 41%
    14:00 +36°C° 0 mm 1 mps 751 mmHg 45%
    15:00 +35°C° 0 mm 1 mps 751 mmHg 49%
    16:00 +34°C° 0 mm 1 mps 751 mmHg 53%
    17:00 +32°C° 0.2 mm 1 mps 751 mmHg 57%
    18:00 +31°C° 0.2 mm 1 mps 752 mmHg 62%
    19:00 +30°C° 0.2 mm 1 mps 752 mmHg 67%
    20:00 +29°C° 0.2 mm 1 mps 753 mmHg 70%
    21:00 +28°C° 0.2 mm 1 mps 753 mmHg 74%
    22:00 +27°C° 0.2 mm 1 mps 753 mmHg 78%
    23:00 +26°C° 0 mm 1 mps 753 mmHg 79%

    Tomorrow, 12 December, Wednesday

    Time Temperature Precipitation Wind Pressure Humidity
    00:00 +26°C° 0 mm 1 mps 753 mmHg 81%
    01:00 +25°C° 0 mm 1 mps 754 mmHg 83%
    02:00 +25°C° 0 mm 1 mps 753 mmHg 83%
    03:00 +25°C° 0 mm 1 mps 753 mmHg 84%
    04:00 +23°C° 0 mm 0 mps 753 mmHg 85%
    05:00 +23°C° 0 mm 0 mps 753 mmHg 84%
    06:00 +23°C° 0 mm 0 mps 753 mmHg 83%
    07:00 +23°C° 0 mm 0 mps 754 mmHg 82%
    08:00 +28°C° 0 mm 1 mps 754 mmHg 72%
    09:00 +30°C° 0 mm 1 mps 754 mmHg 61%
    10:00 +34°C° 0 mm 2 mps 755 mmHg 51%
    11:00 +35°C° 0 mm 2 mps 754 mmHg 49%
    12:00 +34°C° 0 mm 1 mps 753 mmHg 46%
    13:00 +35°C° 0 mm 1 mps 753 mmHg 44%
    14:00 +35°C° 0 mm 1 mps 752 mmHg 45%
    15:00 +34°C° 0 mm 1 mps 752 mmHg 47%
    16:00 +34°C° 0 mm 1 mps 752 mmHg 48%
    17:00 +32°C° 0 mm 1 mps 752 mmHg 51%
    18:00 +31°C° 0 mm 2 mps 753 mmHg 54%
    19:00 +29°C° 0 mm 2 mps 753 mmHg 58%
    20:00 +28°C° 0 mm 2 mps 754 mmHg 61%
    21:00 +27°C° 0 mm 2 mps 754 mmHg 64%
    22:00 +26°C° 0 mm 1 mps 755 mmHg 68%
    23:00 +25°C° 0 mm 1 mps 755 mmHg 71%

    Day after tomorrow, 13 December, Thursday

    Time Temperature Precipitation Wind Pressure Humidity
    00:00 +25°C° 0 mm 1 mps 754 mmHg 74%
    01:00 +24°C° 0 mm 1 mps 754 mmHg 76%
    02:00 +24°C° 0 mm 1 mps 754 mmHg 78%
    03:00 +23°C° 0 mm 1 mps 754 mmHg 80%
    04:00 +21°C° 0 mm 0 mps 754 mmHg 82%
    05:00 +21°C° 0 mm 0 mps 754 mmHg 81%
    06:00 +22°C° 0 mm 0 mps 754 mmHg 80%
    07:00 +22°C° 0 mm 0 mps 755 mmHg 79%
    08:00 +27°C° 0 mm 1 mps 755 mmHg 69%
    09:00 +29°C° 0 mm 1 mps 755 mmHg 59%
    10:00 +32°C° 0 mm 2 mps 755 mmHg 49%
    11:00 +35°C° 0 mm 2 mps 755 mmHg 45%
    12:00 +36°C° 0 mm 2 mps 754 mmHg 41%
    13:00 +37°C° 0 mm 2 mps 753 mmHg 38%
    14:00 +36°C° 0 mm 2 mps 752 mmHg 42%
    15:00 +35°C° 0 mm 2 mps 752 mmHg 45%
    16:00 +33°C° 0 mm 1 mps 752 mmHg 49%
    17:00 +32°C° 0 mm 1 mps 752 mmHg 52%
    18:00 +31°C° 0 mm 2 mps 753 mmHg 54%
    19:00 +30°C° 0 mm 2 mps 753 mmHg 57%
    20:00 +29°C° 0 mm 2 mps 754 mmHg 61%
    21:00 +28°C° 0 mm 1 mps 754 mmHg 65%
    22:00 +27°C° 0 mm 1 mps 755 mmHg 68%
    23:00 +26°C° 0 mm 1 mps 754 mmHg 71%

    14 December, Friday

    Time Temperature Precipitation Wind Pressure Humidity
    00:00 +25°C° 0 mm 1 mps 754 mmHg 74%
    01:00 +25°C° 0 mm 1 mps 754 mmHg 77%
    02:00 +25°C° 0 mm 1 mps 754 mmHg 78%
    03:00 +22°C° 0 mm 0 mps 754 mmHg 80%
    04:00 +22°C° 0 mm 0 mps 753 mmHg 81%
    05:00 +22°C° 0 mm 0 mps 754 mmHg 80%
    06:00 +23°C° 0 mm 0 mps 754 mmHg 79%
    07:00 +23°C° 0 mm 0 mps 755 mmHg 78%
    08:00 +27°C° 0 mm 1 mps 755 mmHg 68%
    09:00 +30°C° 0 mm 2 mps 755 mmHg 58%
    10:00 +34°C° 0 mm 2 mps 756 mmHg 49%
    11:00 +35°C° 0 mm 2 mps 755 mmHg 46%
    12:00 +35°C° 0 mm 2 mps 754 mmHg 44%
    13:00 +36°C° 0 mm 2 mps 753 mmHg 41%
    14:00 +36°C° 0 mm 2 mps 753 mmHg 44%
    15:00 +35°C° 0 mm 2 mps 752 mmHg 46%
    16:00 +34°C° 0 mm 2 mps 752 mmHg 48%
    17:00 +32°C° 0 mm 2 mps 753 mmHg 51%
    18:00 +31°C° 0 mm 2 mps 753 mmHg 54%
    19:00 +30°C° 0 mm 2 mps 754 mmHg 56%
    20:00 +29°C° 0 mm 1 mps 754 mmHg 60%
    21:00 +27°C° 0 mm 1 mps 754 mmHg 65%
    22:00 +26°C° 0 mm 1 mps 755 mmHg 69%
    23:00 +26°C° 0 mm 1 mps 754 mmHg 71%

    15 December, Saturday

    Time Temperature Precipitation Wind Pressure Humidity
    00:00 +25°C° 0 mm 1 mps 754 mmHg 74%
    01:00 +25°C° 0 mm 1 mps 754 mmHg 76%
    02:00 +24°C° 0 mm 1 mps 754 mmHg 77%
    03:00 +24°C° 0 mm 1 mps 753 mmHg 79%
    04:00 +24°C° 0 mm 1 mps 753 mmHg 80%
    05:00 +24°C° 0 mm 1 mps 754 mmHg 79%
    06:00 +25°C° 0 mm 1 mps 754 mmHg 78%
    07:00 +25°C° 0 mm 1 mps 754 mmHg 77%
    08:00 +28°C° 0 mm 1 mps 754 mmHg 68%
    09:00 +30°C° 0 mm 1 mps 755 mmHg 58%
    10:00 +34°C° 0 mm 2 mps 755 mmHg 49%
    11:00 +35°C° 0 mm 2 mps 754 mmHg 46%
    12:00 +36°C° 0 mm 2 mps 753 mmHg 43%
    13:00 +37°C° 0 mm 2 mps 752 mmHg 41%
    14:00 +36°C° 0 mm 2 mps 752 mmHg 43%
    15:00 +35°C° 0 mm 1 mps 752 mmHg 45%
    16:00 +34°C° 0 mm 1 mps 752 mmHg 47%
    17:00 +33°C° 0 mm 1 mps 752 mmHg 51%
    18:00 +31°C° 0 mm 1 mps 753 mmHg 55%
    19:00 +30°C° 0 mm 1 mps 753 mmHg 60%
    20:00 +29°C° 0 mm 1 mps 754 mmHg 64%
    21:00 +28°C° 0 mm 1 mps 754 mmHg 68%
    22:00 +27°C° 0 mm 1 mps 754 mmHg 72%
    23:00 +26°C° 0 mm 1 mps 754 mmHg 74%

    16 December, Sunday

    Time Temperature Precipitation Wind Pressure Humidity
    00:00 +25°C° 0 mm 1 mps 754 mmHg 76%
    01:00 +25°C° 0 mm 1 mps 754 mmHg 79%
    02:00 +25°C° 0 mm 1 mps 754 mmHg 80%
    03:00 +22°C° 0 mm 0 mps 753 mmHg 81%
    04:00 +22°C° 0 mm 0 mps 753 mmHg 83%
    05:00 +22°C° 0 mm 0 mps 754 mmHg 82%
    06:00 +23°C° 0 mm 0 mps 754 mmHg 81%
    07:00 +25°C° 0 mm 1 mps 755 mmHg 80%
    08:00 +28°C° 0 mm 1 mps 755 mmHg 70%
    09:00 +30°C° 0 mm 1 mps 755 mmHg 59%
    10:00 +34°C° 0 mm 2 mps 755 mmHg 49%
    11:00 +35°C° 0 mm 2 mps 754 mmHg 46%
    12:00 +36°C° 0 mm 2 mps 753 mmHg 43%
    13:00 +37°C° 0 mm 2 mps 752 mmHg 39%
    14:00 +37°C° 0 mm 2 mps 752 mmHg 42%
    15:00 +36°C° 0 mm 2 mps 752 mmHg 44%
    16:00 +35°C° 0 mm 2 mps 752 mmHg 47%
    17:00 +34°C° 0 mm 2 mps 752 mmHg 50%
    18:00 +31°C° 0 mm 2 mps 753 mmHg 54%
    19:00 +30°C° 0 mm 2 mps 753 mmHg 58%
    20:00 +29°C° 0 mm 2 mps 754 mmHg 61%
    21:00 +28°C° 0 mm 2 mps 754 mmHg 64%
    22:00 +27°C° 0 mm 1 mps 754 mmHg 67%
    23:00 +26°C° 0 mm 1 mps 754 mmHg 70%
    Show more